Location: Ostrava
(49.8330°N, 18.2830°E)
Time: 06:09:44
(UTC+01:00)

Cosmos 2221 - Visible Passes

Search period start: 20 December 2014 00:00
Search period end: 30 December 2014 00:00
Orbit: 596 x 622 km, 82.5° (Epoch: 19 December)

Date Brightness Start Highest point End Pass type
(mag) Time Alt. Az. Time Alt. Az. Time Alt. Az.
20 Dec 4.4 06:53:18 10° SSE 06:57:14 34° E 07:01:10 10° NNE visible
20 Dec 4.0 16:56:39 10° NNE 16:59:11 15° ENE 16:59:18 15° ENE visible
20 Dec 3.0 18:33:05 10° NNW 18:41:28 11° S 18:41:35 10° S visible
21 Dec 3.6 17:10:12 10° NNE 17:13:39 23° ENE 17:17:05 10° ESE visible
21 Dec 3.7 18:47:28 10° NNW 18:51:29 40° W 18:55:29 10° SSW visible
22 Dec 5.8 05:47:24 10° E 05:48:35 11° E 05:49:46 10° ENE visible
22 Dec 3.0 17:24:04 10° N 17:28:02 36° ENE 17:31:59 10° SE visible
22 Dec 4.7 19:02:02 10° NNW 19:05:33 25° W 19:09:02 10° SW visible
23 Dec 5.4 05:59:38 10° SE 06:02:31 18° E 06:05:25 10° NE visible
23 Dec 2.5 17:38:06 10° N 17:42:21 58° ENE 17:46:33 10° SSE visible
23 Dec 5.4 19:16:56 10° NW 19:19:32 16° W 19:22:07 10° WSW visible
24 Dec 4.7 06:12:51 10° SSE 06:16:31 28° E 06:20:12 10° NNE visible
24 Dec 2.5 17:52:16 10° N 17:56:34 85° W 18:00:51 10° S visible
25 Dec 3.8 06:26:28 10° SSE 06:30:35 45° E 06:34:42 10° NNE visible
25 Dec 3.8 16:29:38 10° NNE 16:32:44 19° ENE 16:35:48 10° ESE visible
25 Dec 3.3 18:06:33 10° NNW 18:10:43 51° W 18:14:51 10° S visible
26 Dec 2.8 06:40:24 10° S 06:44:43 75° E 06:49:02 10° NNE visible
26 Dec 3.3 16:43:22 10° N 16:47:08 29° ENE 16:50:53 10° SE visible
26 Dec 4.4 18:21:00 10° NNW 18:24:47 31° W 18:28:33 10° SSW visible
27 Dec 5.6 05:19:31 10° ESE 05:21:48 14° E 05:24:05 10° NE visible
27 Dec 2.5 06:54:37 10° SSW 06:58:55 67° WNW 07:03:13 10° N visible
27 Dec 2.7 16:57:18 10° N 17:01:27 46° ENE 17:05:34 10° SSE visible
27 Dec 5.2 18:35:41 10° NW 18:38:47 20° W 18:41:52 10° SW visible
28 Dec 5.1 05:32:24 10° SE 05:35:45 22° E 05:39:06 10° NE visible
28 Dec 2.4 17:11:23 10° N 17:15:41 77° E 17:19:58 10° SSE visible
28 Dec 5.7 18:50:57 10° WNW 18:52:42 12° W 18:54:28 10° WSW visible
29 Dec 4.2 05:45:50 10° SSE 05:49:46 35° E 05:53:42 10° NNE visible
29 Dec 2.9 17:25:36 10° NNW 17:29:51 65° W 17:34:05 10° S visible
